[[{"header":{"parameterUnit":"m.s-1","parameterCategory":1,"la1":30.2991,"la2":30.254,"lo1":-89.0895,"lo2":-89.0444,"dy":0.0017,"dx":0.0017,"nx":28,"ny":28,"refTime":"2024-12-08T03:00:00:Z","depth":0,"parameterNumber":2,"parameterNumberName":"U-component_of_WINDS"},"data":[0,0,0,0,0,0,0,0,0,0,0,0,0,0,0,0,0,0,0,0,0,0,0,0,0,0,0,0,0,0,0,0,0,0,0,0,0,0,0,0,0,0,0,0,0,0,0,0,0,0,0,0,0,0,0,0,0,0,-4.328,-4.3281,0,-4.3319,-4.3319,-4.332,-4.3202,-4.3198,-4.3194,-4.3191,-4.3228,-4.3232,-4.3237,0,0,0,0,0,0,0,0,0,0,0,0,0,-4.3104,-4.3108,-4.328,-4.3281,-4.3281,-4.3319,-4.3319,-4.332,-4.3202,-4.3198,-4.3194,-4.3189,-4.3227,-4.3232,-4.3237,0,0,0,0,0,0,0,0,0,0,0,0,0,-4.3165,-4.3109,-4.328,-4.3227,-4.3223,-4.3319,-4.3319,-4.332,-4.3203,-4.3198,-4.3192,-4.3187,-4.3225,-4.3231,-4.3238,-4.3386,0,0,-4.3258,-4.3261,0,0,0,0,0,0,0,0,-4.3162,-4.3172,-4.3235,-4.3231,-4.3226,-4.325,-4.327,-4.3342,-4.3205,-4.3211,-4.3191,-4.3185,-4.324,-4.3245,-4.3264,-4.3388,-4.3389,-4.3258,-4.3262,-4.3265,-4.3267,0,0,0,0,0,0,0,-4.3158,-4.3169,-4.3295,-4.3236,-4.3231,-4.3201,-4.3204,-4.3283,-4.3255,-4.321,-4.3201,-4.3208,-4.3236,-4.3258,-4.3264,-4.339,-4.3258,-4.3264,-4.3268,-4.327,-4.3636,-4.3641,0,0,0,0,0,0,-4.3161,-4.3167,-4.3294,-4.3296,-4.318,-4.3209,-4.3212,-4.3248,-4.3254,-4.3249,-4.3212,-4.3202,-4.3249,-4.3256,-4.3264,-4.3437,-4.3265,-4.3271,-4.3275,-4.363,-4.3637,-4.3643,0,0,0,0,0,0,-4.3157,-4.3173,-4.3293,-4.3229,-4.3242,-4.3217,-4.3259,-4.3251,-4.3272,-4.3255,-4.325,-4.3239,-4.3245,-4.3255,-4.3356,-4.3436,-4.3274,-4.328,-4.3623,-4.3632,-4.364,-4.3783,0,0,0,0,0,0,-4.3153,-4.3173,-4.3229,-4.3232,-4.3246,-4.3385,-4.3264,-4.3256,-4.3284,-4.3271,-4.3279,-4.3275,-4.3242,-4.3347,-4.3363,-4.3442,-4.3285,-4.3616,-4.3627,-4.3638,-4.3771,-4.3796,-4.3817,0,0,0,0,0,-4.3147,-4.3267,-4.3232,-4.3248,-4.3316,-4.339,-4.3398,-4.3357,-4.3291,-4.3347,-4.3336,-4.3275,-4.3426,-4.3359,-4.3375,-4.3458,-4.3611,-4.3624,-4.3637,-4.3761,-4.3791,-4.3816,0,0,0,0,0,0,-4.3273,-4.3266,-4.3228,-4.3353,-4.3373,-4.337,-4.3438,-4.339,-4.3429,-4.3415,-4.3363,-4.3366,-4.3476,-4.3477,-4.3403,-4.3601,-4.3507,-4.3524,-4.3595,-4.3624,-4.3646,-4.3642,-4.329,0,0,0,0,0,-4.3316,-4.3377,-4.3368,-4.3479,-4.3491,-4.3464,-4.3494,-4.3462,-4.348,-4.3487,-4.3484,-4.3504,-4.3555,-4.359,-4.3636,-4.3772,-4.3771,-4.3837,-4.386,-4.3878,-4.3893,-4.3963,-4.3992,-4.3686,-4.3686,-4.3686,0,0,-4.3404,-4.3408,-4.345,-4.3504,-4.3516,-4.3579,-4.3471,-4.3543,-4.3589,-4.3498,-4.3593,-4.3592,-4.361,-4.3729,-4.3781,-4.3733,-4.3978,-4.3895,-4.391,-4.3914,-4.398,-4.4009,-4.4034,-4.3695,-4.3694,-4.3692,0,0,-4.3597,-4.3607,-4.37,-4.3714,-4.3734,-4.3715,-4.3738,-4.3743,-4.3738,-4.3833,-4.3766,-4.382,-4.3911,-4.3926,-4.3946,-4.4147,-4.4091,-4.4164,-4.4281,-4.4351,-4.4375,-4.4396,-4.4465,-4.4491,-4.4179,-4.4179,-4.4179,0,-4.3703,-4.3797,-4.3754,-4.383,-4.3856,-4.3778,-4.3871,-4.3887,-4.3921,-4.394,-4.3887,-4.3998,-4.4005,-4.4126,-4.4175,-4.4195,-4.4218,-4.4161,-4.4375,-4.4395,-4.4414,-4.448,-4.4507,-4.4187,-4.4186,-4.4186,-4.4185,0,-4.3926,-4.3992,-4.4065,-4.41,-4.4135,-4.422,-4.4189,-4.4229,-4.4194,-4.4181,-4.4278,-4.4284,-4.433,-4.4357,-4.4324,-4.4474,-4.4443,-4.4384,-4.4287,-4.4453,-4.4513,-4.4539,-4.42,-4.4196,-4.4194,-4.4192,0,0,-4.4196,-4.4208,-4.4235,-4.425,-4.4267,-4.4317,-4.4399,-4.4444,-4.4479,-4.4506,-4.4571,-4.4651,-4.4596,-4.4619,-4.4586,-4.4648,-4.4804,-4.458,-4.458,-4.462,-4.4968,-4.5011,-4.5041,-4.4769,-4.4774,-4.4778,-4.4966,0,-4.4384,-4.4523,-4.4488,-4.4626,-4.4686,-4.4614,-4.4685,-4.4703,-4.4693,-4.4742,-4.4732,-4.4788,-4.4712,-4.4725,-4.4783,-4.4773,-4.4873,-4.476,-4.4828,-4.4831,-4.4823,-4.5073,-4.5118,-4.5294,-4.4989,-4.4993,-4.4996,0,-4.4621,-4.4657,-4.4802,-4.4809,-4.4833,-4.4897,-4.4936,-4.4985,-4.5004,-4.4993,-4.5019,-4.4975,-4.5055,-4.4961,-4.5069,-4.4993,-4.5019,-4.5019,-4.5025,-4.5027,-4.4921,-4.5079,-4.535,-4.5376,-4.5034,-4.5031,-4.5028,0,-4.48,-4.4886,-4.4983,-4.4999,-4.501,-4.5057,-4.5064,-4.5077,-4.5108,-4.5142,-4.5161,-4.5205,-4.5228,-4.5263,-4.5231,-4.5166,-4.5344,-4.5247,-4.5335,-4.5336,-4.5373,-4.537,-4.5649,-4.5396,-4.5395,-4.5395,-4.5394,0,-4.5012,-4.5102,-4.5064,-4.5124,-4.5223,-4.5182,-4.5282,-4.528,-4.5293,-4.5351,-4.5292,-4.5347,-4.5304,-4.5355,-4.5331,-4.5424,-4.5435,-4.5427,-4.5419,-4.5431,-4.5432,-4.5445,-4.5431,-4.5402,-4.54,-4.5399,-4.5398,0,-4.5227,-4.5206,-4.5307,-4.531,-4.5313,-4.5386,-4.5388,-4.5443,-4.5431,-4.5505,-4.5519,-4.5499,-4.5557,-4.553,-4.559,-4.5574,-4.5692,-4.5669,-4.5686,-4.5679,-4.5767,-4.5758,-4.6062,-4.6098,-4.5824,-4.5827,-4.5829,0,-4.5362,-4.543,-4.5442,-4.5476,-4.5487,-4.5544,-4.5575,-4.5538,-4.5572,-4.56,-4.5651,-4.5704,-4.5743,-4.5839,-4.5829,-4.5874,-4.585,-4.5954,-4.5856,-4.5866,-4.5849,-4.5844,-4.5849,-4.5972,-4.5975,-4.5978,-4.598,0,-4.5602,-4.5589,-4.5636,-4.568,-4.5718,-4.5751,-4.5778,-4.581,-4.5774,-4.5816,-4.5874,-4.5905,-4.5967,-4.602,-4.606,-4.6066,-4.6017,-4.6012,-4.6034,-4.6044,-4.605,-4.6046,-4.5736,-4.6004,-4.6001,-4.6,-4.5998,-4.5997,-4.578,-4.5837,-4.5854,-4.5908,-4.5925,-4.5953,-4.6004,-4.5999,-4.6047,-4.6095,-4.6071,-4.6139,-4.6156,-4.6205,-4.6218,-4.627,-4.6229,-4.6262,-4.6269,-4.6277,-4.6288,-4.6045,-4.6278,-4.6277,-4.6276,-4.6276,-4.6275,0,-4.6015,-4.6023,-4.6074,-4.6114,-4.6157,-4.611,-4.6138,-4.6176,-4.6237,-4.6258,-4.6299,-4.6367,-4.6418,-4.6413,-4.646,-4.6502,-4.6481,-4.6515,-4.651,-4.6512,-4.6323,-4.6298,-4.6532,-4.6532,-4.6532,-4.6532,-4.6532,-4.6532,-4.6142,-4.6235,-4.6224,-4.6326,-4.6333,-4.6399,-4.6419,-4.6444,-4.6461,-4.6539,-4.6581,-4.6579,-4.6589,-4.6636,-4.6681,-4.6678,-4.6697,-4.6739,-4.6728,-4.6551,-4.6526,-4.6501,-4.6477,-4.6745,-4.6745,-4.6912,-4.6914,-4.6915]},{"header":{"parameterUnit":"m.s-1","parameterCategory":1,"la1":30.2991,"la2":30.254,"lo1":-89.0895,"lo2":-89.0444,"dy":0.0017,"dx":0.0017,"nx":28,"ny":28,"refTime":"2024-12-08T03:00:00:Z","depth":0,"parameterNumber":3,"parameterNumberName":"V-component_of_WINDS"},"data":[0,0,0,0,0,0,0,0,0,0,0,0,0,0,0,0,0,0,0,0,0,0,0,0,0,0,0,0,0,0,0,0,0,0,0,0,0,0,0,0,0,0,0,0,0,0,0,0,0,0,0,0,0,0,0,0,0,0,1.105,1.105,0,1.1043,1.1043,1.1043,1.0996,1.0995,1.0993,1.0992,1.0985,1.0986,1.0987,0,0,0,0,0,0,0,0,0,0,0,0,0,1.1024,1.1024,1.105,1.105,1.105,1.1043,1.1043,1.1043,1.0996,1.0995,1.0993,1.0992,1.0985,1.0986,1.0987,0,0,0,0,0,0,0,0,0,0,0,0,0,1.1028,1.1025,1.105,1.1026,1.1023,1.1043,1.1043,1.1043,1.0996,1.0994,1.0993,1.0991,1.0985,1.0986,1.0987,1.103,0,0,1.0991,1.0992,0,0,0,0,0,0,0,0,1.1028,1.1029,1.1029,1.1027,1.1025,1.1018,1.1031,1.1038,1.0997,1.1006,1.0992,1.099,1.0998,1.0998,1.1,1.1029,1.1029,1.0991,1.0992,1.0993,1.0993,0,0,0,0,0,0,0,1.1027,1.1029,1.1047,1.1029,1.1027,1.1015,1.1014,1.1032,1.1012,1.1005,1.1002,1.1002,1.0996,1.0999,1.1,1.1029,1.0991,1.0992,1.0993,1.0994,1.1094,1.1096,0,0,0,0,0,0,1.103,1.1029,1.1047,1.1047,1.1022,1.1017,1.1016,1.1022,1.1011,1.1008,1.1003,1.1,1.0998,1.0998,1.0999,1.1049,1.0993,1.0994,1.0995,1.1092,1.1095,1.1097,0,0,0,0,0,0,1.103,1.1033,1.1048,1.1037,1.1038,1.1019,1.1027,1.1023,1.1026,1.101,1.1006,1.101,1.0996,1.0997,1.1023,1.1048,1.0994,1.0996,1.109,1.1093,1.1096,1.1149,0,0,0,0,0,0,1.103,1.1033,1.1048,1.1038,1.1039,1.1071,1.1029,1.1024,1.1028,1.1023,1.1015,1.1012,1.0995,1.1021,1.1024,1.1049,1.0997,1.1088,1.1091,1.1095,1.1145,1.1154,1.1161,0,0,0,0,0,1.1029,1.1063,1.1049,1.1052,1.1058,1.1073,1.1073,1.1053,1.103,1.1046,1.1036,1.1012,1.1045,1.1024,1.1027,1.1053,1.1086,1.109,1.1094,1.1142,1.1152,1.1161,0,0,0,0,0,0,1.1077,1.1061,1.1046,1.1078,1.1077,1.1065,1.1084,1.1064,1.107,1.1065,1.1039,1.1038,1.1068,1.1063,1.1039,1.1094,1.1062,1.1067,1.1096,1.1106,1.1114,1.1114,1.0998,0,0,0,0,0,1.1091,1.1104,1.109,1.112,1.112,1.1102,1.1108,1.1093,1.1091,1.109,1.1082,1.1081,1.1091,1.1098,1.1107,1.1144,1.1142,1.1164,1.1172,1.1178,1.1183,1.1204,1.1213,1.1111,1.1111,1.111,0,0,1.1121,1.1114,1.1123,1.1129,1.1127,1.1141,1.1102,1.1119,1.113,1.1092,1.1116,1.111,1.1108,1.114,1.1154,1.1137,1.1211,1.1184,1.1189,1.119,1.1209,1.1219,1.1228,1.1113,1.1113,1.1112,0,0,1.1182,1.1178,1.1203,1.1202,1.1199,1.1187,1.1193,1.1184,1.1179,1.1203,1.1176,1.1188,1.1206,1.1206,1.1208,1.1272,1.1251,1.1276,1.1316,1.1337,1.1345,1.1352,1.1376,1.1385,1.128,1.128,1.128,0,1.1219,1.124,1.1218,1.1237,1.1241,1.1209,1.1234,1.1234,1.1234,1.1238,1.1219,1.1242,1.1238,1.127,1.1286,1.1289,1.1296,1.1276,1.1346,1.1353,1.1359,1.1381,1.139,1.1283,1.1283,1.1283,1.1282,0,1.1286,1.1301,1.1322,1.1324,1.133,1.1352,1.1334,1.1343,1.1328,1.1318,1.1344,1.1338,1.1345,1.1352,1.1337,1.1383,1.1372,1.135,1.1317,1.1372,1.1393,1.1401,1.1288,1.1287,1.1286,1.1285,0,0,1.1376,1.1367,1.1375,1.1376,1.1372,1.1383,1.1405,1.1412,1.1421,1.1423,1.144,1.1457,1.1437,1.144,1.1424,1.1443,1.1495,1.1418,1.1418,1.1433,1.1547,1.1564,1.1574,1.1481,1.1483,1.1484,1.1547,0,1.1436,1.1472,1.1454,1.1493,1.1507,1.1478,1.1496,1.1496,1.1488,1.15,1.1491,1.1503,1.1475,1.1477,1.1494,1.1485,1.1518,1.148,1.1498,1.1499,1.15,1.1585,1.1602,1.1662,1.1555,1.1556,1.1557,0,1.151,1.1516,1.1556,1.1551,1.1556,1.1573,1.158,1.1591,1.159,1.1583,1.1588,1.1569,1.159,1.1557,1.1587,1.1562,1.1568,1.1565,1.1567,1.1568,1.1532,1.1589,1.1681,1.169,1.157,1.1569,1.1568,0,1.1573,1.1591,1.1618,1.1619,1.1613,1.1626,1.1624,1.1622,1.1629,1.1634,1.1639,1.1647,1.1651,1.1658,1.1642,1.162,1.1675,1.164,1.167,1.1671,1.1683,1.1682,1.1778,1.1686,1.1686,1.1686,1.1686,0,1.1642,1.1668,1.1646,1.1663,1.1691,1.1671,1.17,1.1695,1.1693,1.1709,1.1684,1.1699,1.1677,1.169,1.1677,1.1705,1.1707,1.1702,1.1699,1.1705,1.1705,1.1708,1.1704,1.1689,1.1688,1.1688,1.1687,0,1.1717,1.1703,1.1731,1.1723,1.1722,1.1744,1.1737,1.1753,1.1744,1.1764,1.1767,1.1753,1.1768,1.1753,1.1765,1.1757,1.1794,1.1784,1.1795,1.1792,1.1823,1.1821,1.1925,1.1938,1.1837,1.1838,1.1839,0,1.1761,1.1781,1.1776,1.1785,1.1785,1.1799,1.1806,1.1787,1.1795,1.1797,1.1813,1.1825,1.1834,1.1859,1.185,1.186,1.185,1.1886,1.1852,1.1858,1.1852,1.1851,1.1854,1.1893,1.1894,1.1895,1.1896,0,1.1843,1.1836,1.1847,1.1856,1.1865,1.1871,1.1875,1.1884,1.1865,1.1875,1.189,1.1897,1.1911,1.1924,1.1932,1.193,1.1911,1.1907,1.1915,1.1921,1.1927,1.1925,1.1814,1.1905,1.1904,1.1903,1.1903,1.1903,1.1905,1.1921,1.1921,1.1935,1.1936,1.1941,1.1956,1.1949,1.1961,1.1971,1.196,1.1978,1.1979,1.1987,1.1988,1.2003,1.1987,1.1998,1.2001,1.2004,1.2009,1.1925,1.2004,1.2004,1.2003,1.2003,1.2003,0,1.1986,1.1984,1.1997,1.2004,1.2016,1.1996,1.2001,1.2011,1.2028,1.203,1.204,1.2058,1.2071,1.2063,1.2075,1.2088,1.2079,1.2091,1.209,1.2091,1.2022,1.2014,1.2098,1.2098,1.2098,1.2098,1.2098,1.2098,1.2029,1.2057,1.205,1.2078,1.2077,1.2095,1.21,1.2104,1.2106,1.2128,1.2138,1.2134,1.2133,1.2144,1.2155,1.2153,1.2158,1.2174,1.2169,1.2105,1.2095,1.2086,1.2079,1.2175,1.2176,1.2236,1.2237,1.2237]}]]